Hourly Data Report for June 01, 2017

FISHER BRANCH (AUT)
MANITOBA

51°05'00.100" N
97°33'16.200" W
253.00 m
50309J6
71442
WSZ

Download Data

Hourly Data (June 2017)
Hourly Data Report for June 1, 2017
TIME
LST
Temp Definition
°C
Dew Point Definition
°C
Rel Hum Definition
%
Precip. Amount Definition
mm

Wind Dir Definition
10's deg

Wind Spd Definition
km/h
Visibility Definition
km
Stn Press Definition
kPa
Hmdx Definition


Wind Chill Definition


Weather Definition


00:00 14.0 4.4 52 0.0 21 9   98.40     LegendNANA
01:00 13.4 4.8 56 0.0 20 10   98.39     LegendNANA
02:00 12.6 4.4 57 0.0 20 11   98.39     LegendNANA
03:00 13.0 4.0 55 0.0 20 10   98.39     LegendNANA
04:00 12.2 3.7 56 0.0 20 11   98.38     LegendNANA
05:00 11.6 3.9 59 0.0 20 9   98.38     LegendNANA
06:00 13.9 5.8 58 0.0 19 7   98.40     LegendNANA
07:00 17.8 5.5 45 0.0 21 8   98.42     LegendNANA
08:00 20.7 4.9 36 0.0 21 10   98.41     LegendNANA
09:00 22.7 4.3 30 0.0 22 13   98.39     LegendNANA
10:00 23.5 3.6 27 0.0 20 17   98.37     LegendNANA
11:00 24.8 1.4 22 0.0 19 16   98.35     LegendNANA
12:00 24.8 0.8 21 0.0 19 15   98.33     LegendNANA
13:00 25.5 1.3 20 0.0 23 14   98.29     LegendNANA
14:00 26.6 2.9 22 0.0 21 12   98.26 25   LegendNANA
15:00 27.6 2.9 20 0.0 21 13   98.20 26   LegendNANA
16:00 27.1 3.6 22 0.0 17 14   98.16 26   LegendNANA
17:00 27.1 4.2 23 0.0 17 10   98.12 26   LegendNANA
18:00 27.3 3.8 22 0.0 19 15   98.09 26   LegendNANA
19:00 26.6 3.7 23 0.0 16 12   98.05 25   LegendNANA
20:00 21.4 5.6 36 0.0 11 14   98.03     LegendNANA
21:00 17.1 5.8 47 0.0 12 11   98.04     LegendNANA
22:00 16.5 6.2 50 0.0 12 17   98.04     LegendNANA
23:00 16.5 6.1 50 0.0 14 17   98.01     LegendNANA

Notes on Data Quality.

Legend

  • E = Estimated
  • M = Missing
  • NA = Not Available*
  • [empty] = Indicates an unobserved value
Date modified: